Location: Brabourne
(51.1333°N, 1.0000°E)
Time: 10:42:36
(UTC+00:00)

ADEOS Rocket - Pass Details

Date: 26 October 2021
Orbit: 858 x 1307 km, 98.8° (Epoch: 26 November)

Event Time Altitude Azimuth Distance (km) Brightness Sun altitude
Exits shadow 00:08:09 18° 1° (N) 2,569 5.5 -50.9°
Drops below altitude 10° 00:09:46 10° 355° (N) 3,078 6.0 -50.8°
Sets 00:12:23 0° 348° (NNW) 3,981 6.7 -50.8°
